Current weather by "City, St" or "zip code"  
 
Advertise Here

Current Conditions: Juneau, Dodge County Airport, WI

Fog


34.0 F

Last Updated on Feb 28 2021, 6:55 am CST
Humidity: 99%
Wind Speed: E 10.4 mph
Barometer 29.74 in
Dewpoint: 34.2 F
Visibility: 0.50 mi
Precip: --
Heat Index: NA
Wind Chill: 26 F
Current conditions at:

Juneau, Dodge County Airport, WI (KUNU)

Lat: 43.42667 Lon: 88.70333

Local Radar Image active severe weather and emergency alerts image image weather storm and storm spotter reports image weather observation monitoring service image
Local
Radar
Active
Alerts
Storm Reports Obs
Monitoring

Sign-up For Email & Text Message Weather Alert Notification Services


Advertise Here

Observation History for Juneau, Dodge County Airport, WI


Time Wind
(mph)
Vis
(mi)
Weather Precip (in) Temperature (F) Relative
Humidity
Wind
Chill
(F)
Heat
Index
(F)
Pressure
Air Dwpt altimeter
(in)
sea level
(mb)
Rmks
6:55 am CST E 10.4 0.50 Fog -- 34.0 34.2 99% 26 NA 29.74 M
5:55 am CST E 10.4 2.00 Fog/Mist -- 35.0 34.2 99% 27 NA 29.77 M
4:55 am CST E 10.4 2.50 Fog/Mist -- 34.0 32.9 97% 26 NA 29.81 M
3:55 am CST E 9.2 2.50 Fog/Mist -- 34.0 33.1 98% 27 NA 29.84 M
2:55 am CST E 6.9 3.00 Fog/Mist -- 33.0 32.2 97% 27 NA 29.89 M
1:55 am CST E 6.9 3.00 Fog/Mist -- 34.0 32.5 96% 28 NA 29.94 M
12:55 am CST E 8.1 7.00 Fair -- 33.0 30.9 91% 26 NA 29.97 M
11:55 pm CST E 5.8 10.00 Fair -- 33.0 28.9 85% 28 NA 29.98 M
10:55 pm CST E 4.6 10.00 Fair -- 33.0 29.3 85% 29 NA 30.00 M
9:55 pm CST SE 4.6 10.00 Fair -- 32.0 28.4 87% 27 NA 30.01 M
8:55 pm CST SE 3.5 10.00 Fair -- 33.0 29.3 85% NA NA 30.02 M
7:55 pm CST SE 3.5 10.00 Fair -- 36.0 29.3 76% NA NA 30.03 M
6:55 pm CST SE 5.8 10.00 Fair -- 37.0 29.3 74% 32 NA 30.03 M
5:55 pm CST N 0.0 10.00 Fair -- 40.0 29.3 65% NA NA 30.03 M
4:55 pm CST S 5.8 10.00 Fair -- 42.0 30.2 63% 38 NA 30.03 M
3:55 pm CST S 5.8 10.00 Fair -- 42.0 30.7 65% 38 NA 30.03 M
2:55 pm CST S 4.6 10.00 Fair -- 42.0 31.1 64% 39 NA 30.01 M
1:55 pm CST S 8.1 10.00 Fair -- 42.0 31.8 68% 37 NA 30.01 M
12:55 pm CST S 9.2 10.00 Fair -- 39.0 31.6 74% 33 NA 30.01 M
11:55 am CST S 8.1 10.00 Fair -- 39.0 31.5 74% 33 NA 30.00 M
10:55 am CST N 0.0 10.00 Fair -- 37.0 31.1 81% NA NA 29.98 M
9:55 am CST S 3.5 7.00 Fair -- 34.0 30.7 89% NA NA 29.96 M
8:55 am CST S 4.6 3.00 Fog/Mist -- 29.0 29.5 100% 24 NA 29.93 M
7:55 am CST S 8.1 1.00 Fog/Mist -- 25.0 24.6 99% 16 NA 29.91 M

Regional Weather Observation


Fond Du Lac County Airport, WI (KFLD)

Fog/Mist
37.0 F

Wittman Regional Airport, WI (KOSH)

Fog
33.0 F

Watertown, WI (KRYV)

Fog/Mist
35.0 F

West Bend Municipal Airport, WI (KETB)

Fog/Mist
34.0 F

Madison, Dane County Regional-Truax Field, WI (KMSN)

Fog/Mist
35.0 F

Baraboo Wisconsin Dells Airport, WI (KDLL)

Fog/Mist
31.0 F
Advertise Here

Advertise Here